Regional Weather Roundup
Issued by NWS Grand Forks, ND

Home | Current Version | Previous Version | Text Only | Print | Product List | Glossary Off
Versions: 1 2 3 4 5 6 7 8 9 10 11 12 13 14 15 16 17 18 19 20 21 22 23 24 25 26 27 28 29 30 31 32 33 34 35 36 37 38 39 40 41 42 43 44 45 46 47 48 49 50

314
ASUS43 KFGF 290110
RWRFGF
PRAIRIE TO PINES  WEATHER ROUNDUP
NATIONAL WEATHER SERVICE EASTERN NORTH DAKOTA/GRAND FORKS ND
800 PM CDT WED JUN 28 2017

 **SATELLITE DATA USED TO AUGMENT SKY COVER AT AUTOMATED STATIONS**
 *****  WEATHER ACROSS EASTERN NORTH DAKOTA  *****

CITY           SKY/WX    TMP DP  RH WIND       PRES   REMARKS
GRAND FORKS    CLOUDY    70  64  81 N8        29.64R
GRAND FRKS AFB FAIR      69  63  81 N7        29.65R
DEVILS LAKE    FAIR      74  56  53 N8        29.68R
FARGO          PTSUNNY   68  63  84 N13       29.63R
WAHPETON ARPT  FAIR      70  59  68 NW12G20   29.62R
$$

 ***** WEATHER ACROSS CENTRAL AND WESTERN NORTH DAKOTA  *****

CITY           SKY/WX    TMP DP  RH WIND       PRES   REMARKS
BISMARCK       FAIR      80  48  32 N10       29.72R
MINOT          FAIR      78  46  32 NW13      29.70R
JAMESTOWN      FAIR      76  50  40 N14       29.66R
MINOT AFB      FAIR      77  48  35 NW12      29.69R
GARRISON         N/A     76  47  35 N5        29.72R
WILLISTON      FAIR      75  45  34 SW6       29.72F
DICKINSON      FAIR      77  38  24 NE8       29.75R
HETTINGER      PTSUNNY   78  32  18 E8        29.77R
$$

 *****  OTHER AIRPORT OBSERVATIONS IN OUR AREA  *****

CITY           SKY/WX    TMP DP  RH WIND       PRES   REMARKS
WALHALLA       NOT AVBL
GRAFTON AIRPOR FAIR      68  64  88 N5        29.67R
VALLEY CITY AR FAIR      72  66  83 N9        29.67R
CANDO          NOT AVBL
CAVALIER APRT  FAIR      68  63  83 NE5       29.65R
GWINNER        CLOUDY    73  61  64 N12       29.64R
SHEYENNE NWR     N/A     74  62  65 N10       29.95S
ROLLA            N/A     73  50  43 N10       29.70R
 ***** THE ABOVE OBSERVATIONS ARE NON NWS ARE NOT QUALITY
       CONTROLLED AND MAY MIS-REPORT RAIN FOR SNOW...
$$

  *****  WEATHER ACROSS NORTHERN MINNESOTA  *****

CITY           SKY/WX    TMP DP  RH WIND       PRES   REMARKS
FLAG ISLAND    RAIN      61  59  94 N9        29.65R
WARROAD        LGT RAIN  61  55  82 NE8       29.65S
ROSEAU         FAIR      61  55  82 N5        29.65R
HALLOCK        FAIR      64  63  94 CALM      29.65R
THF RVR FALLS  PTSUNNY   61  59  93 N9        29.65R
BAUDETTE       LGT RAIN  61  61 100 N9        29.63R
WASKISH        RAIN      63  61  94 N7        29.61R
CROOKSTON      CLOUDY    63  63 100 N12       29.64R
STEPHEN NDAWN    N/A    N/A N/A N/A NE6         N/A
GREENBUSH NDAW   N/A     61  61 100 N3          N/A
$$
  *****  WEATHER ACROSS CENTRAL AND WEST MINNESOTA  *****

CITY           SKY/WX    TMP DP  RH WIND       PRES   REMARKS
FOSSTON        DRIZZLE   57  57 100 N13       29.63R
BEMIDJI        LGT RAIN  60  60  98 NW10      29.59R
PARK RAPIDS    CLOUDY    64  59  83 N9        29.56R
ELBOW LAKE     FAIR      68  62  80 NW14      29.61R
WADENA         CLOUDY    64  61  88 NW13G20   29.57R
DETROIT LAKES  CLOUDY    63  59  88 NW16      29.63R
MOORHEAD       PTSUNNY   68  61  77 N12       29.63R
FERGUS FALLS   PTSUNNY   68  61  77 NW15G25   29.59R
MORRIS MN      FAIR      73  61  64 NW16G24   29.60R
STAPLES        CLOUDY    64  63  94 W8        29.55R
$$
  *****  WEATHER ELSEWHERE ACROSS MINNESOTA  *****

CITY           SKY/WX    TMP DP  RH WIND       PRES   REMARKS
DULUTH         HVY RAIN  58  58 100 E10       29.50F FOG
INTRNTL FALLS  LGT RAIN  60  58  92 MISG      29.61R
ELY            LGT RAIN  57  57 100 E6        29.58S
CLOQUET        DRIZZLE   57  55  94 E5        29.51S
WHEATON        PTSUNNY   72  61  68 NW12      29.63R
BRAINERD       LGT RAIN  64  63  96 N7        29.53R FOG
HIBBING        CLOUDY    59  58  96 NE6       29.54R
ALEXANDRIA     FAIR      68  60  75 NW20G26   29.60R
SAINT CLOUD    FAIR      71  61  70 W18G29    29.54R
MINNEAPOLIS    FAIR      77  61  57 W14       29.53S
$$

  *****  WEATHER ACROSS SOUTH DAKOTA  *****

CITY           SKY/WX    TMP DP  RH WIND       PRES   REMARKS
SIOUX FALLS    FAIR      81  62  52 NW9       29.63R
BROOKINGS      FAIR      79  59  50 N12       29.64R
WATERTOWN      FAIR      76  51  41 N12       29.65R
HURON          FAIR      82  44  26 NW9       29.65R
SISSETON         N/A     75  62  64 N14       29.62R
ABERDEEN       FAIR      78  44  29 NW14      29.66R
MITCHELL       FAIR      85  50  29 N9        29.65R
PIERRE         FAIR      83  40  21 N8        29.68R
MOBRIDGE       FAIR      82  38  20 N8        29.68R
RAPID CITY     FAIR      68  54  60 N21G28    29.79R
$$

  *****  SOME WEATHER IN NEARBY STATES *****

CITY           SKY/WX    TMP DP  RH WIND       PRES   REMARKS
GLASGOW MT     FAIR      77  44  30 SE15      29.69R
GREAT FALLS MT FAIR      73  32  22 W16G25    29.77R
CHEYENNE WY    FAIR      76  34  21 NE5       29.89F
SCOTTSBLUFF NE FAIR      84  48  28 SE14      29.75R
OMAHA NE       FAIR      88  63  43 W8        29.64R
DES MOINES IA  MOCLDY    74  68  81 SW13G20   29.65F
DAVENPORT IA   NOT AVBL
CHICAGO IL     CLOUDY    78  62  57 S17       29.76S
EAU CLAIRE WI  MOCLDY    68  66  93 SW8       29.56R
LA CROSSE WI   FAIR      73  66  78 S9        29.59R
$$

  *****  SOME NATIONAL WEATHER *****

CITY           SKY/WX    TMP DP  RH WIND       PRES   REMARKS
LA GUARDIA NY  MOCLDY    78  50  37 W12       30.08R
RALEIGH NC     FAIR      73  55  53 SE3       30.18S
ATLANTA GA     FAIR      81  65  58 SE8       30.12S
NEW ORLEANS LA CLOUDY    77  70  79 SE8       29.97F
OKLAHOMA CITY  FAIR      84  66  54 S20G29    29.81R
ALBUQUERQUE NM FAIR      93   6   4 W12       29.92S
SALT LAKE CITY FAIR      89  30  12 N15       29.80S
LOS ANGELES CA FAIR      68  60  75 W13       29.85F
BOISE ID       FAIR      83  26  12 N13G21    29.82F
SEATTLE WA     PTSUNNY   67  52  58 SW13      30.05F
$$

*** WEATHER ACROSS MANITOBA...SASKATCHEWAN AND ONTARIO ***
                ***ONTARIO***

CITY           SKY/WX    TMP DP  RH WIND       PRES   REMARKS
GERALDTON      MOCLDY    66  46  48 S5        29.75S
THUNDER BAY    CLOUDY    55  50  82 E13       29.67S
SIOUX LOOKOUT  CLOUDY    70  54  56 SE3       29.65R
TORONTO        CLOUDY    70  48  46 SW9       29.99S
BIG TROUT LK   CLOUDY    59  50  72 SE3       29.84S
PICKLE LAKE    MOCLDY    66  52  59 E13       29.73R
DRYDEN         MOSUNNY   70  54  56 SE6       29.64R
KENORA         LGT RAIN  61  59  94 N6        29.68R
$$
                *** MANITOBA***

CITY           SKY/WX    TMP DP  RH WIND       PRES   REMARKS
BRANDON        MOSUNNY   73  54  49 N9        29.67R
DAUPHIN        NOT AVBL
ISLAND LAKE    LGT RAIN  54  52  94 E5        29.78R
PILOT MOUND      N/A     72  55  56 NW7         N/A
THE PAS        MOSUNNY   57  54  88 N6        29.69R
THOMPSON       LGT RAIN  52  48  87 E7G17     29.79R
WINNIPEG       CLOUDY    66  61  82 S7        29.66R
LYNN LAKE      RAIN      46  46 100 NE9       29.84S FOG
CHURCHILL      PTSUNNY   48  39  71 E15       30.05R
GILLAM         PTSUNNY   57  45  62 NE12G20   29.87R
$$
                ***SASKATCHEWAN***

CITY           SKY/WX    TMP DP  RH WIND       PRES   REMARKS
ESTEVAN        PTSUNNY   73  50  43 N7        29.73R
KINDERSLEY     MOSUNNY   61  54  77 SE7       29.75R
LLOYDMINSTER   PTSUNNY   61  52  72 NE9       29.75R
PRINCE ALBERT  PTSUNNY   63  52  67 N9        29.73R
REGINA         NOT AVBL
YORKTON        MOSUNNY   72  48  43 W12       29.70R
N. BATTLEFORD  MOSUNNY   63  55  77 NE6       29.73S
LA RONGE       PTSUNNY   50  45  81 NE12      29.80R
SASKATOON      PTSUNNY   63  55  77 SW6       29.74R
SWIFT CURRENT  MOSUNNY   70  46  43 E12       29.71R
$$
NOTE: THESE ARE AUTOMATED STATIONS WITH LIMITED QUALITY CONTROL
      "FAIR" INDICATES FEW OR NO CLOUDS BELOW 12,000 FEET WITH NO
      SIGNIFICANT WEATHER AND/OR OBSTRUCTIONS TO VISIBILITY.
      SKY/WX - SKY CONDITION AND SIGNIFICANT WEATHER.
      TMP - AIR TEMPERATURE.    DP   - DEWPOINT TEMPERATURE.
      RH  - RELATIVE HUMIDITY.  PRES - PRESSURE.
      HX  - HEAT INDEX.         WCI  - WIND CHILL INDEX.
$




USA.gov is the U.S. government's official web portal to all federal, state and local government web resources and services.